Terminal Aerodrome Forecast
Issued by NWS

Home | Current Version | Previous Version | Text Only | Print | Product List | Glossary On
Versions: 1 2 3 4 5 6 7 8 9 10 11 12 13 14 15 16 17 18 19 20 21 22 23 24 25 26 27 28
000
FTUS42 KJAX 120500
TAFVQQ
TAF
KVQQ 120534Z 1206/1306 VRB02KT 4SM BR FEW002 SCT025 BKN250
     FM120700 00000KT 2SM BR SCT002 BKN250
     FM120900 00000KT 1/2SM FG VV002
     FM121130 VRB02KT P6SM SCT025 BKN250
     FM121600 09005KT P6SM VCTS BKN035CB BKN250
      TEMPO 1219/1223 3SM TSRA OVC030CB
     FM130300 13002KT P6SM BKN250=

USA.gov is the U.S. government's official web portal to all federal, state and local government web resources and services.